Time,TemperatureF,DewpointF,PressureIn,WindDirection,WindDirectionDegrees,WindSpeedMPH,WindSpeedGustMPH,Humidity,HourlyPrecipIn,Conditions,Clouds,dailyrainin,SolarRadiationWatts/m^2,SoftwareType,DateUTC
2013-03-22 00:00:00,21.6,14.2,29.86,ENE,67,0.0,0.0,73,0.00,CLR,,0.00,0.0,WeatherDisplay:10.37,2013-03-22 04:00:00,
2013-03-22 00:05:00,21.3,14.0,29.86,ENE,67,0.0,0.0,73,0.00,CLR,,0.00,0.0,WeatherDisplay:10.37,2013-03-22 04:05:00,
2013-03-22 00:10:00,21.2,13.9,29.89,ENE,67,0.0,0.0,73,0.00,CLR,,0.00,0.0,WeatherDisplay:10.37,2013-03-22 04:10:00,
2013-03-22 00:15:00,21.2,13.9,29.89,ENE,67,0.0,0.0,73,0.00,CLR,,0.00,0.0,WeatherDisplay:10.37,2013-03-22 04:15:00,
2013-03-22 00:20:00,21.0,13.7,29.89,ENE,73,0.0,0.0,73,0.00,CLR,,0.00,0.0,WeatherDisplay:10.37,2013-03-22 04:20:00,
2013-03-22 00:30:00,20.9,13.6,29.89,NE,47,0.0,0.0,73,0.00,CLR,,0.00,0.0,WeatherDisplay:10.37,2013-03-22 04:30:00,
2013-03-22 00:40:00,21.0,13.7,29.89,NE,47,0.0,0.0,73,0.00,CLR,,0.00,0.0,WeatherDisplay:10.37,2013-03-22 04:40:00,
2013-03-22 00:45:00,20.8,13.5,29.89,NE,46,0.0,0.0,73,0.00,CLR,,0.00,0.0,WeatherDisplay:10.37,2013-03-22 04:45:00,
2013-03-22 00:50:00,20.8,13.5,29.87,NNE,31,0.0,0.0,73,0.00,CLR,,0.00,0.0,WeatherDisplay:10.37,2013-03-22 04:50:00,
2013-03-22 00:55:00,20.8,13.5,29.86,NW,323,0.0,0.0,73,0.00,CLR,,0.00,0.0,WeatherDisplay:10.37,2013-03-22 04:55:00,
2013-03-22 01:00:00,21.0,13.7,29.86,NW,306,0.0,0.0,73,0.00,CLR,,0.00,0.0,WeatherDisplay:10.37,2013-03-22 05:00:00,
2013-03-22 01:10:00,20.8,13.5,29.86,North,359,0.0,0.0,73,0.00,CLR,,0.00,0.0,WeatherDisplay:10.37,2013-03-22 05:10:00,
2013-03-22 01:15:00,20.7,13.4,29.86,NW,322,0.0,0.0,73,0.00,CLR,,0.00,0.0,WeatherDisplay:10.37,2013-03-22 05:15:00,
2013-03-22 01:25:00,20.3,13.0,29.86,WNW,290,0.0,0.0,73,0.00,CLR,,0.00,0.0,WeatherDisplay:10.37,2013-03-22 05:25:00,
2013-03-22 01:30:00,20.4,13.1,29.86,SE,143,0.0,0.0,73,0.00,CLR,,0.00,0.0,WeatherDisplay:10.37,2013-03-22 05:30:00,
2013-03-22 01:40:00,20.3,13.0,29.89,East,80,0.0,0.0,73,0.00,CLR,,0.00,0.0,WeatherDisplay:10.37,2013-03-22 05:40:00,
2013-03-22 01:45:00,20.3,13.0,29.89,ENE,62,0.0,0.0,73,0.00,CLR,,0.00,0.0,WeatherDisplay:10.37,2013-03-22 05:45:00,
2013-03-22 01:50:00,20.2,12.9,29.88,ENE,68,2.0,7.0,73,0.00,CLR,,0.00,0.0,WeatherDisplay:10.37,2013-03-22 05:50:00,
2013-03-22 01:55:00,20.1,12.8,29.86,East,100,0.0,0.0,73,0.00,CLR,,0.00,0.0,WeatherDisplay:10.37,2013-03-22 05:55:00,
2013-03-22 02:00:00,19.9,12.7,29.86,ESE,111,0.0,0.0,73,0.00,CLR,,0.00,0.0,WeatherDisplay:10.37,2013-03-22 06:00:00,
2013-03-22 02:10:00,19.9,12.7,29.89,SE,131,0.0,3.0,73,0.00,CLR,,0.00,0.0,WeatherDisplay:10.37,2013-03-22 06:10:00,
2013-03-22 02:15:00,19.9,12.7,29.89,SE,132,0.0,0.0,73,0.00,CLR,,0.00,0.0,WeatherDisplay:10.37,2013-03-22 06:15:00,
2013-03-22 02:20:00,19.8,12.5,29.89,East,89,0.0,0.0,73,0.00,CLR,,0.00,0.0,WeatherDisplay:10.37,2013-03-22 06:20:00,
2013-03-22 02:25:00,19.8,12.5,29.89,ENE,74,0.0,0.0,73,0.00,CLR,,0.00,0.0,WeatherDisplay:10.37,2013-03-22 06:25:00,
2013-03-22 02:30:00,19.8,12.5,29.89,East,95,0.0,0.0,73,0.00,CLR,,0.00,0.0,WeatherDisplay:10.37,2013-03-22 06:30:00,
2013-03-22 02:40:00,19.6,12.3,29.86,ESE,107,0.0,0.0,73,0.00,CLR,,0.00,0.0,WeatherDisplay:10.37,2013-03-22 06:40:00,
2013-03-22 02:50:00,19.6,12.3,29.86,ESE,112,0.0,0.0,73,0.00,CLR,,0.00,0.0,WeatherDisplay:10.37,2013-03-22 06:50:00,
2013-03-22 02:55:00,19.6,12.3,29.86,ESE,121,0.0,0.0,73,0.00,CLR,,0.00,0.0,WeatherDisplay:10.37,2013-03-22 06:55:00,
2013-03-22 03:00:00,19.6,12.3,29.86,ESE,115,0.0,0.0,73,0.00,CLR,,0.00,0.0,WeatherDisplay:10.37,2013-03-22 07:00:00,
2013-03-22 03:10:00,19.4,12.2,29.89,ENE,76,0.0,0.0,73,0.00,CLR,,0.00,0.0,WeatherDisplay:10.37,2013-03-22 07:10:00,
2013-03-22 03:15:00,19.4,12.2,29.89,ENE,72,0.0,0.0,73,0.00,CLR,,0.00,0.0,WeatherDisplay:10.37,2013-03-22 07:15:00,
2013-03-22 03:20:00,19.4,12.2,29.89,ENE,71,1.0,4.0,73,0.00,CLR,,0.00,0.0,WeatherDisplay:10.37,2013-03-22 07:20:00,
2013-03-22 03:25:00,19.5,12.3,29.89,East,99,0.0,3.0,73,0.00,CLR,,0.00,0.0,WeatherDisplay:10.37,2013-03-22 07:25:00,
2013-03-22 03:30:00,19.6,12.3,29.89,ESE,109,0.0,0.0,73,0.00,CLR,,0.00,0.0,WeatherDisplay:10.37,2013-03-22 07:30:00,
2013-03-22 03:40:00,19.4,12.1,29.89,ESE,107,0.0,4.0,73,0.00,CLR,,0.00,0.0,WeatherDisplay:10.37,2013-03-22 07:40:00,
2013-03-22 03:45:00,19.2,12.0,29.89,ESE,114,0.0,6.0,73,0.00,CLR,,0.00,0.0,WeatherDisplay:10.37,2013-03-22 07:45:00,
2013-03-22 03:50:00,19.2,12.0,29.89,ESE,123,0.0,0.0,73,0.00,CLR,,0.00,0.0,WeatherDisplay:10.37,2013-03-22 07:50:00,
2013-03-22 04:00:00,19.2,12.0,29.89,East,84,0.0,0.0,73,0.00,CLR,,0.00,0.0,WeatherDisplay:10.37,2013-03-22 08:00:00,
2013-03-22 04:10:00,19.2,12.0,29.89,ENE,64,0.0,0.0,73,0.00,CLR,,0.00,0.0,WeatherDisplay:10.37,2013-03-22 08:10:00,
2013-03-22 04:15:00,19.2,12.0,29.89,ENE,64,0.0,0.0,73,0.00,CLR,,0.00,0.0,WeatherDisplay:10.37,2013-03-22 08:15:00,
2013-03-22 04:20:00,19.2,12.0,29.89,ENE,70,0.0,0.0,73,0.00,CLR,,0.00,0.0,WeatherDisplay:10.37,2013-03-22 08:20:00,
2013-03-22 04:25:00,19.2,11.9,29.89,East,90,0.0,0.0,73,0.00,CLR,,0.00,0.0,WeatherDisplay:10.37,2013-03-22 08:25:00,
2013-03-22 04:30:00,19.0,11.8,29.89,East,84,0.0,0.0,73,0.00,CLR,,0.00,0.0,WeatherDisplay:10.37,2013-03-22 08:30:00,
2013-03-22 04:40:00,19.0,11.8,29.89,ENE,57,0.0,0.0,73,0.00,CLR,,0.00,0.0,WeatherDisplay:10.37,2013-03-22 08:40:00,
2013-03-22 04:45:00,19.0,11.8,29.89,ENE,57,0.0,0.0,73,0.00,CLR,,0.00,0.0,WeatherDisplay:10.37,2013-03-22 08:45:00,
2013-03-22 04:50:00,19.0,11.8,29.89,ENE,57,0.0,0.0,73,0.00,CLR,,0.00,0.0,WeatherDisplay:10.37,2013-03-22 08:50:00,
2013-03-22 05:00:00,19.0,11.8,29.89,ENE,57,0.0,0.0,73,0.00,CLR,,0.00,0.0,WeatherDisplay:10.37,2013-03-22 09:00:00,
2013-03-22 05:10:00,18.9,11.6,29.89,ENE,57,0.0,0.0,73,0.00,CLR,,0.00,0.0,WeatherDisplay:10.37,2013-03-22 09:10:00,
2013-03-22 05:15:00,19.0,11.8,29.89,ENE,57,0.0,0.0,73,0.00,CLR,,0.00,0.0,WeatherDisplay:10.37,2013-03-22 09:15:00,
2013-03-22 05:20:00,19.0,11.8,29.89,ENE,57,0.0,0.0,73,0.00,CLR,,0.00,0.0,WeatherDisplay:10.37,2013-03-22 09:20:00,
2013-03-22 05:25:00,19.0,11.8,29.89,ENE,57,0.0,0.0,73,0.00,CLR,,0.00,0.0,WeatherDisplay:10.37,2013-03-22 09:25:00,
2013-03-22 05:30:00,19.0,11.8,29.89,ENE,57,0.0,0.0,73,0.00,CLR,,0.00,0.0,WeatherDisplay:10.37,2013-03-22 09:30:00,
2013-03-22 05:40:00,19.0,11.8,29.89,ENE,57,0.0,0.0,73,0.00,CLR,,0.00,0.0,WeatherDisplay:10.37,2013-03-22 09:40:00,
2013-03-22 05:45:00,19.0,11.8,29.89,ENE,57,0.0,0.0,73,0.00,CLR,,0.00,0.0,WeatherDisplay:10.37,2013-03-22 09:45:00,
2013-03-22 05:50:00,19.2,12.0,29.89,ENE,57,0.0,0.0,73,0.00,CLR,,0.00,0.0,WeatherDisplay:10.37,2013-03-22 09:50:00,
2013-03-22 05:55:00,19.4,12.2,29.92,ENE,66,0.0,0.0,73,0.00,CLR,,0.00,0.0,WeatherDisplay:10.37,2013-03-22 09:55:00,
2013-03-22 06:00:00,19.8,12.5,29.92,NE,35,0.0,6.0,73,0.00,CLR,,0.00,0.0,WeatherDisplay:10.37,2013-03-22 10:00:00,
2013-03-22 06:10:00,20.3,13.0,29.92,NNW,336,2.0,7.0,73,0.00,CLR,,0.00,0.0,WeatherDisplay:10.37,2013-03-22 10:10:00,
2013-03-22 06:15:00,20.3,13.0,29.92,NNW,327,0.0,3.0,73,0.00,CLR,,0.00,0.0,WeatherDisplay:10.37,2013-03-22 10:15:00,
2013-03-22 06:20:00,20.3,13.0,29.92,NNW,338,1.0,8.0,73,0.00,CLR,,0.00,0.0,WeatherDisplay:10.37,2013-03-22 10:20:00,
2013-03-22 06:25:00,20.5,13.2,29.92,NNW,331,3.0,8.0,73,0.00,CLR,,0.00,0.0,WeatherDisplay:10.37,2013-03-22 10:25:00,
2013-03-22 06:30:00,20.5,13.2,29.92,NW,319,2.0,6.0,73,0.00,CLR,,0.00,0.0,WeatherDisplay:10.37,2013-03-22 10:30:00,
2013-03-22 06:40:00,20.3,13.0,29.92,WNW,294,1.0,6.0,73,0.00,CLR,,0.00,0.0,WeatherDisplay:10.37,2013-03-22 10:40:00,
2013-03-22 06:50:00,19.9,12.7,29.92,WNW,297,0.0,0.0,73,0.00,CLR,,0.00,0.0,WeatherDisplay:10.37,2013-03-22 10:50:00,
2013-03-22 07:00:00,19.8,12.5,29.92,WNW,297,0.0,0.0,73,0.00,CLR,,0.00,0.0,WeatherDisplay:10.37,2013-03-22 11:00:00,
2013-03-22 07:10:00,19.6,12.3,29.92,WNW,297,0.0,0.0,73,0.00,CLR,,0.00,0.0,WeatherDisplay:10.37,2013-03-22 11:10:00,
2013-03-22 07:15:00,19.6,12.3,29.92,WNW,297,0.0,0.0,73,0.00,CLR,,0.00,0.0,WeatherDisplay:10.37,2013-03-22 11:15:00,
2013-03-22 07:20:00,19.6,12.3,29.92,WNW,297,0.0,0.0,73,0.00,CLR,,0.00,0.0,WeatherDisplay:10.37,2013-03-22 11:20:00,
2013-03-22 07:25:00,19.4,12.2,29.95,WNW,297,0.0,0.0,73,0.00,CLR,,0.00,0.0,WeatherDisplay:10.37,2013-03-22 11:25:00,
2013-03-22 07:30:00,19.4,12.2,29.95,WNW,297,0.0,0.0,73,0.00,CLR,,0.00,0.0,WeatherDisplay:10.37,2013-03-22 11:30:00,
2013-03-22 07:40:00,19.6,12.3,29.95,WNW,297,0.0,0.0,73,0.00,CLR,,0.00,0.0,WeatherDisplay:10.37,2013-03-22 11:40:00,
2013-03-22 07:45:00,19.6,12.3,29.95,WNW,297,0.0,0.0,73,0.00,CLR,,0.00,0.0,WeatherDisplay:10.37,2013-03-22 11:45:00,
2013-03-22 07:50:00,19.8,12.5,29.95,WNW,297,0.0,0.0,73,0.00,CLR,,0.00,0.0,WeatherDisplay:10.37,2013-03-22 11:50:00,
2013-03-22 07:55:00,20.0,12.7,29.95,WNW,297,0.0,0.0,73,0.00,CLR,,0.00,0.0,WeatherDisplay:10.37,2013-03-22 11:55:00,
2013-03-22 08:00:00,20.3,13.0,29.95,WNW,297,0.0,0.0,73,0.00,CLR,,0.00,0.0,WeatherDisplay:10.37,2013-03-22 12:00:00,
2013-03-22 08:10:00,21.0,13.7,29.95,WNW,289,0.0,0.0,73,0.00,CLR,,0.00,0.0,WeatherDisplay:10.37,2013-03-22 12:10:00,
2013-03-22 08:15:00,21.2,13.9,29.95,West,277,0.0,0.0,73,0.00,CLR,,0.00,0.0,WeatherDisplay:10.37,2013-03-22 12:15:00,
2013-03-22 08:20:00,21.4,14.1,29.95,NW,309,0.0,0.0,73,0.00,CLR,,0.00,0.0,WeatherDisplay:10.37,2013-03-22 12:20:00,
2013-03-22 08:25:00,21.6,14.3,29.95,NNW,333,0.0,0.0,73,0.00,CLR,,0.00,0.0,WeatherDisplay:10.37,2013-03-22 12:25:00,
2013-03-22 08:30:00,21.9,14.6,29.95,North,349,0.0,0.0,73,0.00,CLR,,0.00,0.0,WeatherDisplay:10.37,2013-03-22 12:30:00,
2013-03-22 08:40:00,22.9,15.6,29.95,NNE,19,0.0,0.0,73,0.00,CLR,,0.00,9.7,WeatherDisplay:10.37,2013-03-22 12:40:00,
2013-03-22 08:45:00,23.5,15.8,29.95,NE,42,0.0,0.0,72,0.00,CLR,,0.00,16.8,WeatherDisplay:10.37,2013-03-22 12:45:00,
2013-03-22 08:50:00,23.9,16.2,29.95,ENE,65,0.0,0.0,72,0.00,CLR,,0.00,24.4,WeatherDisplay:10.37,2013-03-22 12:50:00,
2013-03-22 08:55:00,24.1,16.4,29.95,ENE,60,0.0,0.0,72,0.00,CLR,,0.00,32.4,WeatherDisplay:10.37,2013-03-22 12:55:00,
2013-03-22 09:00:00,24.4,16.7,29.95,ENE,57,0.0,0.0,72,0.00,CLR,,0.00,41.8,WeatherDisplay:10.37,2013-03-22 13:00:00,
2013-03-22 09:10:00,25.2,17.4,29.95,ESE,118,0.0,0.0,72,0.00,CLR,,0.00,64.3,WeatherDisplay:10.37,2013-03-22 13:10:00,
2013-03-22 09:15:00,25.3,17.6,29.95,ESE,116,0.0,0.0,72,0.00,CLR,,0.00,76.5,WeatherDisplay:10.37,2013-03-22 13:15:00,
2013-03-22 09:20:00,25.7,17.9,29.95,ESE,117,0.0,0.0,72,0.00,CLR,,0.00,87.8,WeatherDisplay:10.37,2013-03-22 13:20:00,
2013-03-22 09:30:00,26.2,18.4,29.95,ESE,117,0.0,0.0,72,0.00,CLR,,0.00,113.7,WeatherDisplay:10.37,2013-03-22 13:30:00,
2013-03-22 09:40:00,26.8,18.7,29.95,ESE,104,0.0,0.0,71,0.00,CLR,,0.00,135.0,WeatherDisplay:10.37,2013-03-22 13:40:00,
2013-03-22 09:45:00,27.3,19.1,29.95,ESE,112,0.0,0.0,71,0.00,CLR,,0.00,145.7,WeatherDisplay:10.37,2013-03-22 13:45:00,
2013-03-22 09:50:00,27.8,19.7,29.95,ESE,118,0.0,6.0,71,0.00,CLR,,0.00,160.0,WeatherDisplay:10.37,2013-03-22 13:50:00,
2013-03-22 10:00:00,29.1,20.9,29.95,SE,126,0.0,0.0,71,0.00,CLR,,0.00,189.6,WeatherDisplay:10.37,2013-03-22 14:00:00,
2013-03-22 10:10:00,30.7,22.4,29.95,ESE,116,0.0,0.0,71,0.00,CLR,,0.00,222.4,WeatherDisplay:10.37,2013-03-22 14:10:00,
2013-03-22 10:15:00,31.6,23.3,29.95,East,83,0.0,0.0,71,0.00,CLR,,0.00,237.0,WeatherDisplay:10.37,2013-03-22 14:15:00,
2013-03-22 10:20:00,32.3,24.0,29.95,East,92,0.0,5.0,71,0.00,CLR,,0.00,251.8,WeatherDisplay:10.37,2013-03-22 14:20:00,
2013-03-22 10:30:00,33.3,24.9,29.95,ESE,105,0.0,4.0,71,0.00,CLR,,0.00,280.4,WeatherDisplay:10.37,2013-03-22 14:30:00,
2013-03-22 10:40:00,34.2,25.4,29.95,ESE,115,3.0,6.0,70,0.00,CLR,,0.00,307.8,WeatherDisplay:10.37,2013-03-22 14:40:00,
2013-03-22 10:45:00,34.5,25.7,29.95,East,96,1.0,7.0,70,0.00,CLR,,0.00,320.2,WeatherDisplay:10.37,2013-03-22 14:45:00,
2013-03-22 10:50:00,35.2,26.4,29.95,East,101,3.0,6.0,70,0.00,CLR,,0.00,333.7,WeatherDisplay:10.37,2013-03-22 14:50:00,
2013-03-22 11:00:00,36.1,27.2,29.95,ESE,119,3.0,6.0,70,0.00,CLR,,0.00,358.6,WeatherDisplay:10.37,2013-03-22 15:00:00,
2013-03-22 11:10:00,36.9,28.0,29.95,ESE,119,1.0,6.0,70,0.00,CLR,,0.00,379.1,WeatherDisplay:10.37,2013-03-22 15:10:00,
2013-03-22 11:15:00,36.8,28.0,29.95,ESE,105,0.0,2.0,70,0.00,CLR,,0.00,389.9,WeatherDisplay:10.37,2013-03-22 15:15:00,
2013-03-22 11:20:00,37.7,28.4,29.95,ESE,110,3.0,6.0,69,0.00,CLR,,0.00,401.9,WeatherDisplay:10.37,2013-03-22 15:20:00,
2013-03-22 11:25:00,38.3,29.0,29.95,ESE,117,5.0,6.0,69,0.00,CLR,,0.00,412.9,WeatherDisplay:10.37,2013-03-22 15:25:00,
2013-03-22 11:30:00,38.5,29.2,29.95,SE,132,2.0,6.0,69,0.00,CLR,,0.00,419.8,WeatherDisplay:10.37,2013-03-22 15:30:00,
2013-03-22 11:40:00,39.7,30.4,29.95,ESE,106,5.0,7.0,69,0.00,CLR,,0.00,438.3,WeatherDisplay:10.37,2013-03-22 15:40:00,
2013-03-22 11:45:00,39.6,30.2,29.95,ESE,110,5.0,8.0,69,0.00,CLR,,0.00,443.2,WeatherDisplay:10.37,2013-03-22 15:45:00,
2013-03-22 11:50:00,39.7,30.3,29.95,ESE,109,5.0,8.0,69,0.00,CLR,,0.00,449.2,WeatherDisplay:10.37,2013-03-22 15:50:00,
2013-03-22 12:00:00,40.5,31.1,29.95,ESE,103,3.0,6.0,69,0.00,CLR,,0.00,459.1,WeatherDisplay:10.37,2013-03-22 16:00:00,
2013-03-22 12:10:00,41.4,32.0,29.95,ESE,102,1.0,6.0,69,0.00,CLR,,0.00,472.5,WeatherDisplay:10.37,2013-03-22 16:10:00,
2013-03-22 12:15:00,41.9,32.5,29.95,East,97,3.0,6.0,69,0.00,CLR,,0.00,481.3,WeatherDisplay:10.37,2013-03-22 16:15:00,
2013-03-22 12:20:00,42.7,33.2,29.95,ESE,111,3.0,6.0,69,0.00,CLR,,0.00,490.1,WeatherDisplay:10.37,2013-03-22 16:20:00,
2013-03-22 12:30:00,43.0,33.1,29.95,East,97,3.0,6.0,68,0.00,CLR,,0.00,498.9,WeatherDisplay:10.37,2013-03-22 16:30:00,
2013-03-22 12:40:00,42.3,32.8,29.95,ESE,108,3.0,6.0,69,0.00,CLR,,0.00,504.0,WeatherDisplay:10.37,2013-03-22 16:40:00,
2013-03-22 12:45:00,42.5,33.1,29.95,ESE,120,5.0,6.0,69,0.00,CLR,,0.00,503.6,WeatherDisplay:10.37,2013-03-22 16:45:00,
2013-03-22 12:50:00,42.6,33.2,29.95,SE,125,1.0,6.0,69,0.00,CLR,,0.00,504.6,WeatherDisplay:10.37,2013-03-22 16:50:00,
2013-03-22 12:55:00,43.6,33.7,29.95,ESE,117,2.0,6.0,68,0.00,CLR,,0.00,508.1,WeatherDisplay:10.37,2013-03-22 16:55:00,
2013-03-22 13:00:00,44.7,34.8,29.95,ESE,118,6.0,6.0,68,0.00,CLR,,0.00,514.8,WeatherDisplay:10.37,2013-03-22 17:00:00,
2013-03-22 13:10:00,44.1,34.2,29.95,ENE,76,3.0,7.0,68,0.00,CLR,,0.00,531.8,WeatherDisplay:10.37,2013-03-22 17:10:00,
2013-03-22 13:15:00,44.7,34.8,29.95,ESE,110,6.0,8.0,68,0.00,CLR,,0.00,537.5,WeatherDisplay:10.37,2013-03-22 17:15:00,
2013-03-22 13:20:00,44.9,35.0,29.95,ESE,108,5.0,6.0,68,0.00,CLR,,0.00,540.1,WeatherDisplay:10.37,2013-03-22 17:20:00,
2013-03-22 13:25:00,45.3,35.4,29.95,East,100,5.0,6.0,68,0.00,CLR,,0.00,544.2,WeatherDisplay:10.37,2013-03-22 17:25:00,
2013-03-22 13:30:00,46.3,36.3,29.95,ESE,109,5.0,11.0,68,0.00,CLR,,0.00,549.4,WeatherDisplay:10.37,2013-03-22 17:30:00,
2013-03-22 13:40:00,46.8,36.4,29.95,ESE,111,7.0,8.0,67,0.00,CLR,,0.00,555.6,WeatherDisplay:10.37,2013-03-22 17:40:00,
2013-03-22 13:45:00,46.8,36.4,29.95,ESE,112,3.0,6.0,67,0.00,CLR,,0.00,554.8,WeatherDisplay:10.37,2013-03-22 17:45:00,
2013-03-22 13:50:00,46.8,36.4,29.95,East,100,3.0,6.0,67,0.00,CLR,,0.00,554.0,WeatherDisplay:10.37,2013-03-22 17:50:00,
2013-03-22 13:55:00,46.0,36.1,29.95,ESE,110,2.0,6.0,68,0.00,CLR,,0.00,548.2,WeatherDisplay:10.37,2013-03-22 17:55:00,
2013-03-22 14:00:00,45.6,35.6,29.95,ESE,119,3.0,6.0,68,0.00,CLR,,0.00,545.1,WeatherDisplay:10.37,2013-03-22 18:00:00,
2013-03-22 14:10:00,45.7,35.7,29.92,ESE,107,3.0,6.0,68,0.00,CLR,,0.00,541.3,WeatherDisplay:10.37,2013-03-22 18:10:00,
2013-03-22 14:15:00,46.8,36.4,29.92,SE,129,2.0,7.0,67,0.00,CLR,,0.00,554.2,WeatherDisplay:10.37,2013-03-22 18:15:00,
2013-03-22 14:20:00,47.9,37.4,29.92,ESE,116,6.0,8.0,67,0.00,CLR,,0.00,568.8,WeatherDisplay:10.37,2013-03-22 18:20:00,
2013-03-22 14:30:00,47.0,36.7,29.92,ESE,120,5.0,6.0,67,0.00,CLR,,0.00,563.5,WeatherDisplay:10.37,2013-03-22 18:30:00,
2013-03-22 14:40:00,45.7,35.7,29.95,SE,124,5.0,6.0,68,0.00,CLR,,0.00,531.1,WeatherDisplay:10.37,2013-03-22 18:40:00,
2013-03-22 14:45:00,44.2,34.3,29.95,East,95,3.0,6.0,68,0.00,CLR,,0.00,506.7,WeatherDisplay:10.37,2013-03-22 18:45:00,
2013-03-22 14:50:00,43.8,33.9,29.95,East,88,1.0,6.0,68,0.00,CLR,,0.00,490.9,WeatherDisplay:10.37,2013-03-22 18:50:00,
2013-03-22 15:00:00,42.1,32.6,29.95,SE,136,3.0,6.0,69,0.00,CLR,,0.00,470.5,WeatherDisplay:10.37,2013-03-22 19:00:00,
2013-03-22 15:10:00,42.3,32.8,29.95,East,98,0.0,3.0,69,0.00,CLR,,0.00,449.3,WeatherDisplay:10.37,2013-03-22 19:10:00,
2013-03-22 15:15:00,42.3,32.8,29.95,East,88,0.0,0.0,69,0.00,CLR,,0.00,441.4,WeatherDisplay:10.37,2013-03-22 19:15:00,
2013-03-22 15:20:00,42.3,32.8,29.95,ESE,102,0.0,0.0,69,0.00,CLR,,0.00,432.6,WeatherDisplay:10.37,2013-03-22 19:20:00,
2013-03-22 15:30:00,41.5,32.1,29.95,ESE,121,0.0,0.0,69,0.00,CLR,,0.00,414.1,WeatherDisplay:10.37,2013-03-22 19:30:00,
2013-03-22 15:40:00,41.4,31.9,29.95,SE,138,0.0,0.0,69,0.00,CLR,,0.00,398.0,WeatherDisplay:10.37,2013-03-22 19:40:00,
2013-03-22 15:45:00,41.2,31.8,29.95,South,170,0.0,0.0,69,0.00,CLR,,0.00,388.9,WeatherDisplay:10.37,2013-03-22 19:45:00,
2013-03-22 15:50:00,41.2,31.8,29.93,South,171,0.0,0.0,69,0.00,CLR,,0.00,383.0,WeatherDisplay:10.37,2013-03-22 19:50:00,
2013-03-22 16:00:00,41.2,31.8,29.92,East,100,0.0,0.0,69,0.00,CLR,,0.00,369.2,WeatherDisplay:10.37,2013-03-22 20:00:00,
2013-03-22 16:10:00,41.2,31.8,29.92,East,88,0.0,0.0,69,0.00,CLR,,0.00,356.6,WeatherDisplay:10.37,2013-03-22 20:10:00,
2013-03-22 16:15:00,41.4,31.9,29.92,ESE,108,0.0,0.0,69,0.00,CLR,,0.00,350.3,WeatherDisplay:10.37,2013-03-22 20:15:00,
2013-03-22 16:20:00,41.4,32.0,29.94,ESE,117,0.0,0.0,69,0.00,CLR,,0.00,345.3,WeatherDisplay:10.37,2013-03-22 20:20:00,
2013-03-22 16:25:00,41.2,31.8,29.95,ESE,117,0.0,0.0,69,0.00,CLR,,0.00,340.0,WeatherDisplay:10.37,2013-03-22 20:25:00,
2013-03-22 16:30:00,41.2,31.8,29.95,ESE,116,0.0,0.0,69,0.00,CLR,,0.00,334.7,WeatherDisplay:10.37,2013-03-22 20:30:00,
2013-03-22 16:40:00,41.0,31.6,29.95,ESE,119,0.0,0.0,69,0.00,CLR,,0.00,326.9,WeatherDisplay:10.37,2013-03-22 20:40:00,
2013-03-22 16:45:00,41.0,31.6,29.95,ESE,122,0.0,0.0,69,0.00,CLR,,0.00,321.3,WeatherDisplay:10.37,2013-03-22 20:45:00,
2013-03-22 16:50:00,41.0,31.6,29.95,ESE,123,0.0,0.0,69,0.00,CLR,,0.00,316.9,WeatherDisplay:10.37,2013-03-22 20:50:00,
2013-03-22 17:00:00,41.0,31.6,29.95,ESE,123,0.0,0.0,69,0.00,CLR,,0.00,306.3,WeatherDisplay:10.37,2013-03-22 21:00:00,
2013-03-22 17:10:00,41.0,31.6,29.95,ESE,123,0.0,0.0,69,0.00,CLR,,0.00,296.8,WeatherDisplay:10.37,2013-03-22 21:10:00,
2013-03-22 17:15:00,40.8,31.4,29.95,ESE,116,0.0,0.0,69,0.00,CLR,,0.00,289.1,WeatherDisplay:10.37,2013-03-22 21:15:00,
2013-03-22 17:20:00,40.6,31.3,29.95,ESE,102,0.0,0.0,69,0.00,CLR,,0.00,282.4,WeatherDisplay:10.37,2013-03-22 21:20:00,
2013-03-22 17:30:00,40.5,31.1,29.95,ESE,104,0.0,0.0,69,0.00,CLR,,0.00,268.3,WeatherDisplay:10.37,2013-03-22 21:30:00,
2013-03-22 17:40:00,40.1,30.7,29.95,ESE,108,0.0,0.0,69,0.00,CLR,,0.00,252.6,WeatherDisplay:10.37,2013-03-22 21:40:00,
2013-03-22 17:45:00,40.1,30.7,29.95,ESE,108,0.0,0.0,69,0.00,CLR,,0.00,245.7,WeatherDisplay:10.37,2013-03-22 21:45:00,
2013-03-22 17:50:00,40.3,30.9,29.95,ESE,108,0.0,0.0,69,0.00,CLR,,0.00,239.0,WeatherDisplay:10.37,2013-03-22 21:50:00,
2013-03-22 17:55:00,40.3,30.9,29.95,ESE,108,0.0,0.0,69,0.00,CLR,,0.00,232.2,WeatherDisplay:10.37,2013-03-22 21:55:00,
2013-03-22 18:00:00,40.1,30.7,29.95,ESE,108,0.0,0.0,69,0.00,CLR,,0.00,226.4,WeatherDisplay:10.37,2013-03-22 22:00:00,
2013-03-22 18:10:00,39.7,30.4,29.95,ESE,108,0.0,0.0,69,0.00,BKN,,0.00,210.5,WeatherDisplay:10.37,2013-03-22 22:10:00,
2013-03-22 18:15:00,39.7,30.4,29.95,ESE,108,0.0,0.0,69,0.00,BKN,,0.00,202.2,WeatherDisplay:10.37,2013-03-22 22:15:00,
2013-03-22 18:20:00,39.6,30.2,29.95,ESE,108,0.0,0.0,69,0.00,BKN,,0.00,195.4,WeatherDisplay:10.37,2013-03-22 22:20:00,
2013-03-22 18:25:00,39.6,30.2,29.95,ESE,108,0.0,0.0,69,0.00,BKN,,0.00,187.3,WeatherDisplay:10.37,2013-03-22 22:25:00,
2013-03-22 18:30:00,39.4,30.1,29.95,ESE,108,0.0,0.0,69,0.00,BKN,,0.00,179.4,WeatherDisplay:10.37,2013-03-22 22:30:00,
2013-03-22 18:40:00,39.2,29.9,29.95,ESE,108,0.0,0.0,69,0.00,BKN,,0.00,164.5,WeatherDisplay:10.37,2013-03-22 22:40:00,
2013-03-22 18:50:00,38.8,29.5,29.95,ESE,108,0.0,0.0,69,0.00,BKN,,0.00,149.7,WeatherDisplay:10.37,2013-03-22 22:50:00,
2013-03-22 19:00:00,38.7,29.4,29.95,ESE,108,0.0,0.0,69,0.00,BKN,,0.00,135.9,WeatherDisplay:10.37,2013-03-22 23:00:00,
2013-03-22 19:10:00,38.5,29.2,29.95,ESE,108,0.0,0.0,69,0.00,BKN,,0.00,121.2,WeatherDisplay:10.37,2013-03-22 23:10:00,
2013-03-22 19:15:00,38.4,29.1,29.95,ESE,108,0.0,0.0,69,0.00,BKN,,0.00,114.4,WeatherDisplay:10.37,2013-03-22 23:15:00,
2013-03-22 19:20:00,38.3,29.0,29.95,ESE,108,0.0,0.0,69,0.00,BKN,,0.00,107.3,WeatherDisplay:10.37,2013-03-22 23:20:00,
2013-03-22 19:25:00,38.1,28.8,29.95,ESE,108,0.0,0.0,69,0.00,BKN,,0.00,100.5,WeatherDisplay:10.37,2013-03-22 23:25:00,
2013-03-22 19:30:00,37.9,28.7,29.95,ESE,108,0.0,0.0,69,0.00,BKN,,0.00,93.0,WeatherDisplay:10.37,2013-03-22 23:30:00,
2013-03-22 19:40:00,37.6,28.3,29.95,ESE,108,0.0,0.0,69,0.00,BKN,,0.00,79.0,WeatherDisplay:10.37,2013-03-22 23:40:00,
2013-03-22 19:45:00,37.6,28.3,29.95,ESE,108,0.0,0.0,69,0.00,BKN,,0.00,0.0,WeatherDisplay:10.37,2013-03-22 23:45:00,
2013-03-22 19:50:00,37.4,28.2,29.95,ESE,108,0.0,0.0,69,0.00,BKN,,0.00,0.0,WeatherDisplay:10.37,2013-03-22 23:50:00,
2013-03-22 20:00:00,37.4,28.2,29.95,ESE,108,0.0,0.0,69,0.00,BKN,,0.00,0.0,WeatherDisplay:10.37,2013-03-23 00:00:00,
2013-03-22 20:10:00,37.4,28.2,29.95,ESE,108,0.0,0.0,69,0.00,BKN,,0.00,0.0,WeatherDisplay:10.37,2013-03-23 00:10:00,
2013-03-22 20:20:00,37.2,28.3,29.95,ESE,108,0.0,0.0,70,0.00,BKN,,0.00,0.0,WeatherDisplay:10.37,2013-03-23 00:20:00,
2013-03-22 20:30:00,37.2,28.3,29.95,ESE,108,0.0,0.0,70,0.00,BKN,,0.00,0.0,WeatherDisplay:10.37,2013-03-23 00:30:00,
2013-03-22 20:40:00,37.2,28.3,29.95,ESE,108,0.0,0.0,70,0.00,BKN,,0.00,0.0,WeatherDisplay:10.37,2013-03-23 00:40:00,
2013-03-22 20:45:00,37.0,28.2,29.95,ESE,108,0.0,0.0,70,0.00,BKN,,0.00,0.0,WeatherDisplay:10.37,2013-03-23 00:45:00,
2013-03-22 20:50:00,37.0,28.2,29.95,ESE,108,0.0,0.0,70,0.00,BKN,,0.00,0.0,WeatherDisplay:10.37,2013-03-23 00:50:00,
2013-03-22 21:00:00,37.2,28.3,29.95,ENE,65,0.0,0.0,70,0.00,BKN,,0.00,0.0,WeatherDisplay:10.37,2013-03-23 01:00:00,
2013-03-22 21:10:00,37.0,28.2,29.98,NE,37,0.0,0.0,70,0.00,SCT,,0.00,0.0,WeatherDisplay:10.37,2013-03-23 01:10:00,
2013-03-22 21:15:00,36.9,28.0,29.98,NE,37,0.0,0.0,70,0.00,SCT,,0.00,0.0,WeatherDisplay:10.37,2013-03-23 01:15:00,
2013-03-22 21:20:00,36.8,27.9,29.98,NE,37,0.0,0.0,70,0.00,SCT,,0.00,0.0,WeatherDisplay:10.37,2013-03-23 01:20:00,
2013-03-22 21:25:00,36.5,27.6,29.98,NE,37,0.0,0.0,70,0.00,SCT,,0.00,0.0,WeatherDisplay:10.37,2013-03-23 01:25:00,
2013-03-22 21:30:00,36.5,27.6,29.98,NE,37,0.0,0.0,70,0.00,SCT,,0.00,0.0,WeatherDisplay:10.37,2013-03-23 01:30:00,
2013-03-22 21:40:00,36.1,27.3,29.98,NE,37,0.0,0.0,70,0.00,SCT,,0.00,0.0,WeatherDisplay:10.37,2013-03-23 01:40:00,
2013-03-22 21:45:00,36.0,27.1,29.98,NE,37,0.0,0.0,70,0.00,SCT,,0.00,0.0,WeatherDisplay:10.37,2013-03-23 01:45:00,
2013-03-22 21:50:00,35.8,26.9,29.98,NE,37,0.0,0.0,70,0.00,SCT,,0.00,0.0,WeatherDisplay:10.37,2013-03-23 01:50:00,
2013-03-22 22:00:00,35.4,26.6,29.98,NE,37,0.0,0.0,70,0.00,SCT,,0.00,0.0,WeatherDisplay:10.37,2013-03-23 02:00:00,
2013-03-22 22:10:00,35.1,26.3,29.98,NE,37,0.0,0.0,70,0.00,OVC,,0.00,0.0,WeatherDisplay:10.37,2013-03-23 02:10:00,
2013-03-22 22:15:00,34.9,26.1,29.98,NE,37,0.0,0.0,70,0.00,OVC,,0.00,0.0,WeatherDisplay:10.37,2013-03-23 02:15:00,
2013-03-22 22:20:00,34.7,25.9,29.98,NE,37,0.0,0.0,70,0.00,OVC,,0.00,0.0,WeatherDisplay:10.37,2013-03-23 02:20:00,
2013-03-22 22:30:00,34.5,25.7,29.98,NE,37,0.0,0.0,70,0.00,OVC,,0.00,0.0,WeatherDisplay:10.37,2013-03-23 02:30:00,
2013-03-22 22:40:00,34.9,26.1,29.98,NE,37,0.0,0.0,70,0.00,OVC,,0.00,0.0,WeatherDisplay:10.37,2013-03-23 02:40:00,
2013-03-22 22:45:00,34.9,26.1,29.98,NE,37,0.0,0.0,70,0.00,OVC,,0.00,0.0,WeatherDisplay:10.37,2013-03-23 02:45:00,
2013-03-22 22:50:00,35.1,26.3,29.98,NE,37,0.0,0.0,70,0.00,OVC,,0.00,0.0,WeatherDisplay:10.37,2013-03-23 02:50:00,
2013-03-22 23:00:00,35.2,26.4,29.98,NE,37,0.0,0.0,70,0.00,OVC,,0.00,0.0,WeatherDisplay:10.37,2013-03-23 03:00:00,
2013-03-22 23:10:00,35.4,26.6,29.98,NE,37,0.0,0.0,70,0.00,OVC,,0.00,0.0,WeatherDisplay:10.37,2013-03-23 03:10:00,
2013-03-22 23:15:00,35.4,26.6,29.98,NE,37,0.0,0.0,70,0.00,OVC,,0.00,0.0,WeatherDisplay:10.37,2013-03-23 03:15:00,
2013-03-22 23:20:00,35.6,26.8,29.98,NE,37,0.0,0.0,70,0.00,OVC,,0.00,0.0,WeatherDisplay:10.37,2013-03-23 03:20:00,
2013-03-22 23:30:00,35.8,26.9,29.98,NE,37,0.0,0.0,70,0.00,OVC,,0.00,0.0,WeatherDisplay:10.37,2013-03-23 03:30:00,
2013-03-22 23:40:00,35.8,26.9,29.98,NE,37,0.0,0.0,70,0.00,OVC,,0.00,0.0,WeatherDisplay:10.37,2013-03-23 03:40:00,
2013-03-22 23:45:00,35.8,26.9,29.98,NE,37,0.0,0.0,70,0.00,OVC,,0.00,0.0,WeatherDisplay:10.37,2013-03-23 03:45:00,
2013-03-22 23:50:00,35.8,26.9,29.98,NE,37,0.0,0.0,70,0.00,OVC,,0.00,0.0,WeatherDisplay:10.37,2013-03-23 03:50:00,